Weather Roundup
Issued by NWS

Home | Current Version | Previous Version | Graphics & Text | Print | Product List | Glossary Off
Versions: 1 2 3 4 5 6 7 8 9 10 11 12 13 14 15 16 17 18 19 20 21 22 23 24 25 26 27 28 29 30 31 32 33 34 35 36 37 38 39 40 41 42 43 44 45 46 47 48 49 50

638
NZUS93 KARX 251959
HRRWXR

CURRENT HOURLY OBSERVATIONS ACROSS
MUCH OF THE UPPER MISSISSIPPI VALLEY
NATIONAL WEATHER SERVICE LA CROSSE WI
300 PM CDT THU MAY 25 2017


...SOUTHEAST MINNESOTA...


CITY           SKY/WX    TMP DP  RH WIND       PRES   REMARKS
ROCHESTER      MOSUNNY   65  53  65 S12       29.67S
ROCHESTER/MAYO MOCLDY    67  49  52 E7        29.67F
WINONA         SUNNY     70  54  56 E7        29.67S
AUSTIN         CLOUDY    66  50  55 S7        29.66F
ALBERT LEA     SUNNY     68  50  52 S10       29.65F
DODGE CENTER   CLOUDY    66  50  55 S10G17    29.67F
PRESTON        PTSUNNY   66  50  56 SE7       29.68F
OWATONNA       MOSUNNY   64  50  59 SE8G20    29.65F
FARIBAULT      MOSUNNY   66  50  55 SE12G20   29.66S
$$

...ELSEWHERE IN MINNESOTA...


CITY           SKY/WX    TMP DP  RH WIND       PRES   REMARKS
MINNEAPOLIS    MOSUNNY   69  49  48 S9G18     29.65F
INTNL FALLS    PTSUNNY   68  44  42 S12G21    29.63F
DULUTH         MOSUNNY   63  47  55 E13G22    29.69F
RED WING       CLOUDY    68  48  49 SE6       29.66S
REDWOOD FALLS  MOSUNNY   69  48  47 SE24G32   29.58F
MANKATO        MOSUNNY   68  49  50 SE16G23   29.63F
WORTHINGTON    MOSUNNY   70  50  49 S18G25    29.57S
FAIRMONT       SUNNY     70  49  47 SE16G23   29.62S
$$

...SOUTHWEST WISCONSIN...


CITY           SKY/WX    TMP DP  RH WIND       PRES   REMARKS
LA CROSSE      SUNNY     72  55  55 VRB3      29.66F
PRAIRIE DU CHI SUNNY     69  51  53 E7        29.66F
BOSCOBEL       MOSUNNY   72  53  51 VRB5      29.67F
LONE ROCK      NOT AVBL
PLATTEVILLE    MOSUNNY   66  56  71 CALM      29.70S
FORT MC COY    MOSUNNY   69  53  55 CALM      29.67F
MAUSTON-NEW LI CLEAR     70  53  54 CALM      29.66F
VIROQUA        MOCLDY    68  52  56 MISG      29.68F
WIS DELLS      PTSUNNY   68  51  55 E5        29.68S
$$

...ELSEWHERE IN WISCONSIN...


CITY           SKY/WX    TMP DP  RH WIND       PRES   REMARKS
MILWAUKEE      MOSUNNY   61  52  72 N15G23    29.66R
MADISON        PTSUNNY   68  52  56 NE6       29.67R
GREEN BAY      SUNNY     67  55  65 NE18G26   29.68R
EAU CLAIRE     NOT AVBL
BLACK RVR FLS  FAIR      74  47  38 SE5       29.65F
MEDFORD        PTSUNNY   68  52  55 SE9       29.67F
WAUSAU         PTSUNNY   71  49  45 VRB5      29.65F
WIS RAPIDS     MOSUNNY   71  50  47 E8        29.68S
MARSHFIELD     MOSUNNY   71  51  49 VRB6      29.67S
RICE LAKE      PTSUNNY   69  48  47 SE12      29.69S
$$

...NORTHEAST IOWA...


CITY           SKY/WX    TMP DP  RH WIND       PRES   REMARKS
WATERLOO       SUNNY     69  49  48 E5        29.66F
DUBUQUE        SUNNY     66  53  63 VRB3      29.68F
DECORAH        NOT AVBL
MASON CITY     PTSUNNY   68  49  50 SE13      29.67F
CHARLES CITY   NOT AVBL
OELWEIN        NOT AVBL
$$

...ELSEWHERE IN IOWA...


CITY           SKY/WX    TMP DP  RH WIND       PRES   REMARKS
DES MOINES     MOSUNNY   72  50  45 S12G20    29.65F
IOWA CITY      SUNNY     71  52  50 CALM      29.68F
FORT DODGE     SUNNY     72  52  49 SE14G20   29.64S
MARSHALLTOWN   SUNNY     68  47  46 CALM      29.65F
CEDAR RAPIDS   MOSUNNY   69  52  54 CALM      29.67F
$$

...NORTHERN ILLINOIS...


CITY           SKY/WX    TMP DP  RH WIND       PRES   REMARKS
CHICAGO-OHARE  CLOUDY    67  54  63 N8        29.64R
CHICAGO-MIDWAY PTSUNNY   68  54  60 N9        29.64R
MOLINE         NOT AVBL
ROCKFORD       CLOUDY    67  54  63 N7        29.69R
PEORIA         MOSUNNY   69  56  62 CALM      29.69S
$$

NOTE: "FAIR" INDICATES FEW OR NO CLOUDS BELOW 12,000 FEET WITH NO
SIGNIFICANT WEATHER AND/OR OBSTRUCTIONS TO VISIBILITY. WIND
SPEEDS ARE IN MILES-PER-HOUR.




USA.gov is the U.S. government's official web portal to all federal, state and local government web resources and services.